TimeEST,TemperatureF,Dew PointF,Humidity,Sea Level PressureIn,VisibilityMPH,Wind Direction,Wind SpeedMPH,Gust SpeedMPH,PrecipitationIn,Events,Conditions,WindDirDegrees,DateUTC
12:25 AM,53.6,51.8,94,30.08,6.0,West,4.6,-,N/A,,Clear,260,2012-12-09 05:25:00
12:28 AM,51.8,51.8,100,30.08,2.5,West,4.6,-,N/A,,Clear,270,2012-12-09 05:28:00
12:30 AM,51.8,51.8,100,30.08,1.8,West,4.6,-,N/A,,Clear,280,2012-12-09 05:30:00
12:31 AM,51.8,51.8,100,30.08,1.5,West,5.8,-,N/A,,Clear,280,2012-12-09 05:31:00
12:32 AM,51.8,51.8,100,30.08,1.2,West,5.8,-,N/A,,Clear,280,2012-12-09 05:32:00
12:33 AM,51.8,51.8,100,30.08,1.0,West,5.8,-,N/A,,Clear,270,2012-12-09 05:33:00
12:39 AM,51.8,51.8,100,30.08,1.2,West,5.8,-,N/A,,Clear,260,2012-12-09 05:39:00
12:41 AM,51.8,51.8,100,30.08,1.5,West,4.6,-,N/A,,Clear,260,2012-12-09 05:41:00
12:42 AM,51.8,51.8,100,30.08,2.0,West,4.6,-,N/A,,Partly Cloudy,260,2012-12-09 05:42:00
12:44 AM,51.8,51.8,100,30.08,3.0,WSW,4.6,-,N/A,,Partly Cloudy,250,2012-12-09 05:44:00
12:45 AM,51.8,51.8,100,30.08,4.0,WSW,4.6,-,N/A,,Partly Cloudy,250,2012-12-09 05:45:00
12:55 AM,51.8,50.9,97,30.08,9.0,Calm,Calm,-,N/A,,Partly Cloudy,0,2012-12-09 05:55:00
12:56 AM,51.8,51.8,100,30.08,9.0,Calm,Calm,-,N/A,,Partly Cloudy,0,2012-12-09 05:56:00
12:59 AM,51.8,51.8,100,30.08,9.0,Calm,Calm,-,N/A,,Partly Cloudy,0,2012-12-09 05:59:00
1:22 AM,53.6,51.8,94,30.07,8.0,Calm,Calm,-,N/A,,Clear,0,2012-12-09 06:22:00
1:45 AM,53.6,51.8,94,30.07,2.5,Calm,Calm,-,N/A,,Partly Cloudy,0,2012-12-09 06:45:00
1:47 AM,53.6,51.8,94,30.07,1.8,Calm,Calm,-,N/A,,Partly Cloudy,0,2012-12-09 06:47:00
1:48 AM,53.6,51.8,94,30.07,1.5,Calm,Calm,-,N/A,,Partly Cloudy,0,2012-12-09 06:48:00
1:50 AM,53.6,51.8,94,30.07,1.2,Calm,Calm,-,N/A,,Partly Cloudy,0,2012-12-09 06:50:00
1:51 AM,53.6,51.8,94,30.07,1.2,Calm,Calm,-,N/A,,Partly Cloudy,0,2012-12-09 06:51:00
1:54 AM,53.6,51.8,94,30.07,1.2,Calm,Calm,-,N/A,,Scattered Clouds,0,2012-12-09 06:54:00
1:55 AM,52.9,52.3,98,30.07,1.5,Calm,Calm,-,N/A,,Scattered Clouds,0,2012-12-09 06:55:00
1:56 AM,53.6,51.8,94,30.07,1.8,Calm,Calm,-,N/A,,Scattered Clouds,0,2012-12-09 06:56:00
1:57 AM,53.6,51.8,94,30.07,2.0,Calm,Calm,-,N/A,,Scattered Clouds,0,2012-12-09 06:57:00
1:59 AM,51.8,51.8,100,30.07,3.0,Calm,Calm,-,N/A,,Scattered Clouds,0,2012-12-09 06:59:00
2:23 AM,51.8,51.8,100,30.07,2.5,Calm,Calm,-,N/A,,Partly Cloudy,0,2012-12-09 07:23:00
2:25 AM,53.6,51.8,94,30.07,2.5,Calm,Calm,-,N/A,,Partly Cloudy,0,2012-12-09 07:25:00
2:27 AM,51.8,51.8,100,30.07,2.5,Calm,Calm,-,N/A,,Clear,0,2012-12-09 07:27:00
2:31 AM,51.8,51.8,100,30.07,3.0,Calm,Calm,-,N/A,,Clear,0,2012-12-09 07:31:00
2:55 AM,52.3,51.4,97,30.07,10.0,West,3.5,-,N/A,,Clear,260,2012-12-09 07:55:00
3:28 AM,51.8,50.0,94,30.07,2.0,West,4.6,-,N/A,,Clear,280,2012-12-09 08:28:00
3:29 AM,51.8,50.0,94,30.07,1.5,West,4.6,-,N/A,,Clear,280,2012-12-09 08:29:00
3:30 AM,51.8,50.0,94,30.07,1.2,West,4.6,-,N/A,,Clear,280,2012-12-09 08:30:00
3:31 AM,51.8,50.0,94,30.07,1.0,West,4.6,-,N/A,,Clear,280,2012-12-09 08:31:00
3:32 AM,51.8,51.8,100,30.07,0.8,West,4.6,-,N/A,,Clear,280,2012-12-09 08:32:00
3:33 AM,51.8,51.8,100,30.07,0.8,West,4.6,-,N/A,,Clear,280,2012-12-09 08:33:00
3:34 AM,51.8,51.8,100,30.07,0.8,West,3.5,-,N/A,,Clear,280,2012-12-09 08:34:00
3:35 AM,51.8,51.8,100,30.07,0.5,West,3.5,-,N/A,Fog,Fog,280,2012-12-09 08:35:00
3:36 AM,51.8,51.8,100,30.07,0.5,West,3.5,-,N/A,Fog,Fog,280,2012-12-09 08:36:00
3:41 AM,51.8,51.8,100,30.07,0.8,WNW,4.6,-,N/A,,Clear,290,2012-12-09 08:41:00
3:47 AM,51.8,51.8,100,30.07,0.8,West,4.6,-,N/A,,Mist,280,2012-12-09 08:47:00
3:53 AM,51.8,51.8,100,30.07,0.5,Calm,Calm,-,N/A,Fog,Fog,0,2012-12-09 08:53:00
3:55 AM,52.7,52.2,98,30.07,0.5,Calm,Calm,-,N/A,Fog,Fog,0,2012-12-09 08:55:00
4:00 AM,53.6,51.8,94,30.07,0.5,Calm,Calm,-,N/A,Fog,Fog,0,2012-12-09 09:00:00
4:01 AM,53.6,51.8,94,30.07,0.8,Calm,Calm,-,N/A,,Mist,0,2012-12-09 09:01:00
4:04 AM,53.6,51.8,94,30.07,1.0,Calm,Calm,-,N/A,,Mist,0,2012-12-09 09:04:00
4:13 AM,53.6,53.6,100,30.07,0.8,Calm,Calm,-,N/A,,Mist,0,2012-12-09 09:13:00
4:18 AM,53.6,53.6,100,30.07,1.0,Calm,Calm,-,N/A,,Mist,0,2012-12-09 09:18:00
4:22 AM,55.4,53.6,94,30.07,1.2,Calm,Calm,-,N/A,,Partly Cloudy,0,2012-12-09 09:22:00
4:26 AM,55.4,53.6,94,30.07,1.5,Calm,Calm,-,N/A,,Clear,0,2012-12-09 09:26:00
4:27 AM,55.4,53.6,94,30.07,1.8,Calm,Calm,-,N/A,,Clear,0,2012-12-09 09:27:00
4:29 AM,53.6,53.6,100,30.07,2.0,Calm,Calm,-,N/A,,Clear,0,2012-12-09 09:29:00
4:32 AM,53.6,53.6,100,30.07,1.8,Calm,Calm,-,N/A,,Clear,0,2012-12-09 09:32:00
4:34 AM,53.6,53.6,100,30.06,1.5,Calm,Calm,-,N/A,,Clear,0,2012-12-09 09:34:00
4:36 AM,53.6,53.6,100,30.06,1.2,Calm,Calm,-,N/A,,Clear,0,2012-12-09 09:36:00
4:37 AM,53.6,53.6,100,30.06,1.2,Calm,Calm,-,N/A,,Partly Cloudy,0,2012-12-09 09:37:00
4:38 AM,53.6,53.6,100,30.06,1.0,Calm,Calm,-,N/A,,Mist,0,2012-12-09 09:38:00
4:41 AM,53.6,53.6,100,30.06,1.0,Calm,Calm,-,N/A,,Mist,0,2012-12-09 09:41:00
4:42 AM,53.6,53.6,100,30.06,0.8,Calm,Calm,-,N/A,,Mist,0,2012-12-09 09:42:00
4:48 AM,53.6,53.6,100,30.07,0.5,Calm,Calm,-,N/A,Fog,Fog,0,2012-12-09 09:48:00
4:51 AM,53.6,53.6,100,30.07,0.5,Calm,Calm,-,N/A,Fog,Fog,0,2012-12-09 09:51:00
4:55 AM,53.4,53.1,99,30.07,0.5,Calm,Calm,-,N/A,Fog,Fog,0,2012-12-09 09:55:00
4:56 AM,53.6,53.6,100,30.07,0.2,Calm,Calm,-,N/A,Fog,Fog,0,2012-12-09 09:56:00
5:22 AM,53.6,53.6,100,30.08,0.5,Calm,Calm,-,N/A,Fog,Fog,0,2012-12-09 10:22:00
5:50 AM,53.6,53.6,100,30.08,0.5,Calm,Calm,-,N/A,Fog,Fog,0,2012-12-09 10:50:00
5:55 AM,54.0,53.6,99,30.08,0.5,Calm,Calm,-,N/A,Fog,Fog,0,2012-12-09 10:55:00
6:01 AM,53.6,53.6,100,30.08,0.8,Calm,Calm,-,N/A,,Mist,0,2012-12-09 11:01:00
6:06 AM,53.6,53.6,100,30.08,0.8,Calm,Calm,-,N/A,,Mist,0,2012-12-09 11:06:00
6:08 AM,53.6,53.6,100,30.08,0.8,Calm,Calm,-,N/A,,Partly Cloudy,0,2012-12-09 11:08:00
6:26 AM,53.6,53.6,100,30.09,0.8,Calm,Calm,-,N/A,,Clear,0,2012-12-09 11:26:00
6:34 AM,53.6,53.6,100,30.09,0.5,Calm,Calm,-,N/A,Fog,Fog,0,2012-12-09 11:34:00
6:39 AM,53.6,53.6,100,30.09,0.8,Calm,Calm,-,N/A,,Clear,0,2012-12-09 11:39:00
6:40 AM,53.6,53.6,100,30.09,0.8,Calm,Calm,-,N/A,,Clear,0,2012-12-09 11:40:00
6:43 AM,53.6,53.6,100,30.09,0.8,Calm,Calm,-,N/A,,Clear,0,2012-12-09 11:43:00
6:45 AM,53.6,53.6,100,30.09,1.0,Calm,Calm,-,N/A,,Clear,0,2012-12-09 11:45:00
6:48 AM,53.6,53.6,100,30.09,1.2,Calm,Calm,-,N/A,,Clear,0,2012-12-09 11:48:00
6:50 AM,53.6,53.6,100,30.09,1.5,Calm,Calm,-,N/A,,Clear,0,2012-12-09 11:50:00
6:51 AM,53.6,53.6,100,30.09,1.2,Calm,Calm,-,N/A,,Clear,0,2012-12-09 11:51:00
6:53 AM,53.6,53.6,100,30.09,1.0,Calm,Calm,-,N/A,,Clear,0,2012-12-09 11:53:00
6:55 AM,54.3,54.3,100,30.09,1.0,Calm,Calm,-,N/A,,Clear,0,2012-12-09 11:55:00
6:56 AM,53.6,53.6,100,30.09,0.8,Calm,Calm,-,N/A,,Clear,0,2012-12-09 11:56:00
6:59 AM,55.4,55.4,100,30.09,0.5,Calm,Calm,-,N/A,Fog,Fog,0,2012-12-09 11:59:00
7:00 AM,55.4,55.4,100,30.09,0.5,Calm,Calm,-,N/A,Fog,Fog,0,2012-12-09 12:00:00
7:03 AM,55.4,55.4,100,30.09,0.5,Calm,Calm,-,N/A,Fog,Fog,0,2012-12-09 12:03:00
7:04 AM,55.4,55.4,100,30.09,0.2,Calm,Calm,-,N/A,Fog,Fog,0,2012-12-09 12:04:00
7:48 AM,55.4,55.4,100,30.10,0.2,Calm,Calm,-,N/A,Fog,Fog,0,2012-12-09 12:48:00
7:49 AM,55.4,55.4,100,30.10,0.2,Calm,Calm,-,N/A,Fog,Fog,0,2012-12-09 12:49:00
7:52 AM,55.4,55.4,100,30.10,0.5,NW,3.5,-,N/A,Fog,Fog,310,2012-12-09 12:52:00
7:55 AM,55.6,55.6,100,30.11,0.5,NW,3.5,-,N/A,Fog,Fog,310,2012-12-09 12:55:00
7:56 AM,55.4,55.4,100,30.11,0.5,NW,4.6,-,N/A,Fog,Fog,310,2012-12-09 12:56:00
7:57 AM,55.4,55.4,100,30.11,0.8,NW,4.6,-,N/A,,Clear,310,2012-12-09 12:57:00
8:00 AM,55.4,55.4,100,30.11,1.0,NW,5.8,-,N/A,,Clear,320,2012-12-09 13:00:00
8:02 AM,55.4,55.4,100,30.11,1.2,NNW,4.6,-,N/A,,Clear,330,2012-12-09 13:02:00
8:03 AM,55.4,55.4,100,30.11,1.5,NW,5.8,-,N/A,,Clear,320,2012-12-09 13:03:00
8:04 AM,55.4,55.4,100,30.11,1.8,NW,5.8,-,N/A,,Partly Cloudy,320,2012-12-09 13:04:00
8:08 AM,55.4,55.4,100,30.11,2.0,NW,4.6,-,N/A,,Partly Cloudy,320,2012-12-09 13:08:00
8:14 AM,55.4,55.4,100,30.11,3.0,NNW,4.6,-,N/A,,Clear,330,2012-12-09 13:14:00
8:17 AM,55.4,55.4,100,30.12,3.0,NW,3.5,-,N/A,,Partly Cloudy,320,2012-12-09 13:17:00
8:34 AM,57.2,57.2,100,30.12,2.5,NNW,4.6,-,N/A,,Partly Cloudy,340,2012-12-09 13:34:00
8:39 AM,57.2,57.2,100,30.12,1.8,NNW,3.5,-,N/A,,Partly Cloudy,340,2012-12-09 13:39:00
8:41 AM,57.2,57.2,100,30.12,1.5,Calm,Calm,-,N/A,,Partly Cloudy,0,2012-12-09 13:41:00
8:47 AM,57.2,57.2,100,30.12,1.2,Calm,Calm,-,N/A,,Partly Cloudy,0,2012-12-09 13:47:00
8:48 AM,57.2,57.2,100,30.12,1.0,NNW,3.5,-,N/A,,Mist,330,2012-12-09 13:48:00
8:49 AM,57.2,57.2,100,30.12,0.8,NNW,3.5,-,N/A,,Mist,330,2012-12-09 13:49:00
8:50 AM,57.2,57.2,100,30.12,0.5,NNW,3.5,-,N/A,Fog,Fog,330,2012-12-09 13:50:00
8:53 AM,57.2,57.2,100,30.12,0.2,Calm,Calm,-,N/A,Fog,Fog,0,2012-12-09 13:53:00
8:55 AM,57.9,57.9,100,30.12,0.2,Calm,Calm,-,N/A,Fog,Fog,0,2012-12-09 13:55:00
8:56 AM,57.2,57.2,100,30.12,0.2,Calm,Calm,-,N/A,Fog,Fog,0,2012-12-09 13:56:00
8:57 AM,57.2,57.2,100,30.12,0.2,Calm,Calm,-,N/A,Fog,Fog,0,2012-12-09 13:57:00
9:25 AM,59.0,59.0,100,30.13,0.2,Calm,Calm,-,N/A,Fog,Fog,0,2012-12-09 14:25:00
9:27 AM,59.0,59.0,100,30.13,0.2,Calm,Calm,-,N/A,Fog,Fog,0,2012-12-09 14:27:00
9:30 AM,59.0,59.0,100,30.13,0.5,Calm,Calm,-,N/A,Fog,Fog,0,2012-12-09 14:30:00
9:36 AM,59.0,59.0,100,30.14,0.5,NNW,3.5,-,N/A,Fog,Fog,330,2012-12-09 14:36:00
9:37 AM,59.0,59.0,100,30.14,0.8,NNW,4.6,-,N/A,,Mist,330,2012-12-09 14:37:00
9:40 AM,59.0,59.0,100,30.13,0.8,NNW,4.6,-,N/A,,Mist,340,2012-12-09 14:40:00
9:42 AM,60.8,60.8,100,30.13,1.0,NNW,4.6,-,N/A,,Mist,330,2012-12-09 14:42:00
9:45 AM,60.8,60.8,100,30.13,1.2,NNW,4.6,-,N/A,,Overcast,340,2012-12-09 14:45:00
9:52 AM,60.8,60.8,100,30.13,1.5,NNW,4.6,-,N/A,,Overcast,340,2012-12-09 14:52:00
9:54 AM,60.8,60.8,100,30.13,1.8,NNW,3.5,-,N/A,,Overcast,340,2012-12-09 14:54:00
9:55 AM,60.4,60.4,100,30.13,1.8,NNW,3.5,-,N/A,,Overcast,340,2012-12-09 14:55:00
9:56 AM,60.8,60.8,100,30.13,2.0,NNW,3.5,-,N/A,,Overcast,340,2012-12-09 14:56:00
9:59 AM,60.8,60.8,100,30.13,3.0,Calm,Calm,-,N/A,,Overcast,0,2012-12-09 14:59:00
10:05 AM,60.8,60.8,100,30.13,6.0,Calm,Calm,-,N/A,,Overcast,0,2012-12-09 15:05:00
10:26 AM,62.6,62.6,100,30.12,8.0,Calm,Calm,-,N/A,,Overcast,0,2012-12-09 15:26:00
10:39 AM,62.6,62.6,100,30.12,10.0,Calm,Calm,-,N/A,,Scattered Clouds,0,2012-12-09 15:39:00
10:43 AM,64.4,64.4,100,30.12,10.0,Calm,Calm,-,N/A,,Mostly Cloudy,0,2012-12-09 15:43:00
10:48 AM,64.4,64.4,100,30.12,10.0,Calm,Calm,-,N/A,,Scattered Clouds,0,2012-12-09 15:48:00
10:55 AM,65.1,64.8,99,30.12,10.0,Calm,Calm,-,N/A,,Scattered Clouds,0,2012-12-09 15:55:00
11:55 AM,71.1,68.4,91,30.09,10.0,Calm,Calm,-,N/A,,Clear,0,2012-12-09 16:55:00
12:53 PM,75.2,66.2,73,30.06,10.0,Variable,3.5,-,N/A,,Mostly Cloudy,0,2012-12-09 17:53:00
12:55 PM,75.2,65.5,72,30.06,10.0,Calm,Calm,-,N/A,,Overcast,0,2012-12-09 17:55:00
1:22 PM,75.2,64.4,69,30.05,10.0,Variable,3.5,-,N/A,,Mostly Cloudy,0,2012-12-09 18:22:00
1:55 PM,76.8,65.1,67,30.03,10.0,SSW,5.8,-,N/A,,Partly Cloudy,200,2012-12-09 18:55:00
2:22 PM,77.0,66.2,69,30.03,10.0,East,6.9,-,N/A,,Mostly Cloudy,100,2012-12-09 19:22:00
2:46 PM,75.2,64.4,69,30.03,10.0,ESE,8.1,-,N/A,,Mostly Cloudy,110,2012-12-09 19:46:00
2:55 PM,76.8,65.7,68,30.03,10.0,ESE,6.9,-,N/A,,Scattered Clouds,120,2012-12-09 19:55:00
3:55 PM,74.1,66.2,76,30.03,10.0,ESE,8.1,-,N/A,,Overcast,120,2012-12-09 20:55:00
4:55 PM,71.2,65.8,83,30.02,10.0,East,8.1,-,N/A,,Overcast,100,2012-12-09 21:55:00
5:55 PM,69.3,64.9,86,30.03,10.0,East,3.5,-,N/A,,Overcast,90,2012-12-09 22:55:00
6:55 PM,68.4,64.0,86,30.02,10.0,Calm,Calm,-,N/A,,Mostly Cloudy,0,2012-12-09 23:55:00
7:55 PM,66.7,63.9,90,30.03,10.0,Calm,Calm,-,N/A,,Mostly Cloudy,0,2012-12-10 00:55:00
8:55 PM,65.8,63.9,93,30.03,10.0,Calm,Calm,-,N/A,,Overcast,0,2012-12-10 01:55:00
9:55 PM,65.3,63.7,94,30.02,10.0,Calm,Calm,-,N/A,,Overcast,0,2012-12-10 02:55:00
10:41 PM,64.4,62.6,94,30.02,10.0,Calm,Calm,-,N/A,,Overcast,0,2012-12-10 03:41:00
10:55 PM,64.9,63.5,95,30.02,10.0,Calm,Calm,-,N/A,,Mostly Cloudy,0,2012-12-10 03:55:00
11:07 PM,66.2,64.4,94,30.01,10.0,Calm,Calm,-,N/A,,Mostly Cloudy,0,2012-12-10 04:07:00
11:38 PM,64.4,62.6,94,29.99,10.0,SSW,2.3,-,N/A,,Scattered Clouds,200,2012-12-10 04:38:00
11:40 PM,64.4,62.6,94,30.00,10.0,Calm,Calm,-,N/A,,Mostly Cloudy,0,2012-12-10 04:40:00
11:55 PM,63.1,61.5,94,29.99,10.0,Calm,Calm,-,N/A,,Scattered Clouds,0,2012-12-10 04:55:00